IZ5MMH-14 Weather Reports


time (UTC)temp
C
wind
direction
speed
KPH
gust
KPH
rain 1hr
cm
rain 24hr
cm
rain mn
cm
humidity
%
barometer
mb
20260507105001 21 0.0 0.0 0.00 0.00 0.00 85 1014.8
20260507104001 20 0.0 0.0 0.00 0.00 0.00 79 1014.9
20260507103001 20 0.0 0.0 0.00 0.00 0.00 85 1014.9
20260507102001 20 0.0 0.0 0.00 0.00 0.00 88 1015.0
20260507101001 20 0.0 0.0 0.00 0.00 0.00 87 1014.8
20260507100001 20 0.0 0.0 0.00 0.00 0.00 89 1014.9
20260507095001 20 0.0 0.0 0.00 0.00 0.00 85 1014.9
20260507094001 20 0.0 0.0 0.00 0.00 0.00 85 1014.8
20260507093001 20 0.0 0.0 0.00 0.00 0.00 84 1014.6
20260507092004 21 0.0 0.0 0.00 0.00 0.00 82 1014.5
20260507091001 21 0.0 0.0 0.00 0.00 0.00 78 1014.5
20260507090001 21 0.0 0.0 0.00 0.00 0.00 79 1014.5
20260507085001 21 0.0 0.0 0.00 0.00 0.00 81 1014.5
20260507084001 21 0.0 0.0 0.00 0.00 0.00 82 1014.5
20260507083001 21 0.0 0.0 0.00 0.00 0.00 84 1014.5
20260507082000 21 0.0 0.0 0.00 0.00 0.00 89 1014.5
20260507081001 21 0.0 0.0 0.00 0.00 0.00 85 1014.4
20260507080001 21 0.0 0.0 0.00 0.00 0.00 82 1014.5
20260507075001 21 0.0 0.0 0.00 0.00 0.00 87 1014.5
20260507074001 21 0.0 0.0 0.00 0.00 0.00 89 1014.6
20260507073000 21 0.0 0.0 0.00 0.00 0.00 91 1014.6
20260507072001 20 0.0 0.0 0.00 0.00 0.00 98 1014.7
20260507071000 20 0.0 0.0 0.00 0.00 0.00 10 1014.6
20260507070001 20 0.0 0.0 0.00 0.00 0.00 10 1014.6
20260507065001 19 0.0 0.0 0.00 0.00 0.00 10 1014.5
20260507064000 20 0.0 0.0 0.00 0.00 0.00 10 1014.4
20260507063001 19 0.0 0.0 0.00 0.00 0.00 10 1014.4
20260507062000 18 0.0 0.0 0.00 0.00 0.00 10 1014.3
20260507061000 19 0.0 0.0 0.00 0.00 0.00 10 1014.2
20260507060001 18 0.0 0.0 0.00 0.00 0.00 10 1014.2
20260507055001 18 0.0 0.0 0.00 0.00 0.00 10 1014.1
20260507054000 17 0.0 0.0 0.00 0.00 0.00 10 1014.0
20260507053001 17 0.0 0.0 0.00 0.00 0.00 10 1014.0
20260507052000 17 0.0 0.0 0.00 0.00 0.00 10 1013.9
20260507051001 17 0.0 0.0 0.00 0.00 0.00 10 1013.9
20260507050000 16 0.0 0.0 0.00 0.00 0.00 10 1013.6
20260507045001 16 0.0 0.0 0.00 0.00 0.00 10 1013.6
20260507044001 16 0.0 0.0 0.00 0.00 0.00 10 1013.5
20260507043001 16 0.0 0.0 0.00 0.00 0.00 10 1013.4
20260507042000 16 0.0 0.0 0.00 0.00 0.00 10 1013.5
20260507041000 16 0.0 0.0 0.00 0.00 0.00 10 1013.4
20260507040000 16 0.0 0.0 0.00 0.00 0.00 10 1013.4
20260507035000 16 0.0 0.0 0.00 0.00 0.00 10 1013.3
20260507034000 16 0.0 0.0 0.00 0.00 0.00 10 1013.2
20260507033001 16 0.0 0.0 0.00 0.00 0.00 10 1013.2
20260507032000 16 0.0 0.0 0.00 0.00 0.00 10 1013.3
20260507031001 16 0.0 0.0 0.00 0.00 0.00 10 1013.4
20260507030000 16 0.0 0.0 0.00 0.00 0.00 10 1013.3
20260507025000 16 0.0 0.0 0.00 0.00 0.00 10 1013.4
20260507024001 16 0.0 0.0 0.00 0.00 0.00 10 1013.4
20260507023001 16 0.0 0.0 0.00 0.00 0.00 10 1013.3
20260507022000 16 0.0 0.0 0.00 0.00 0.00 10 1013.3
20260507021000 16 0.0 0.0 0.00 0.00 0.00 10 1013.2
20260507020001 16 0.0 0.0 0.00 0.00 0.00 10 1013.2
20260507015000 16 0.0 0.0 0.00 0.00 0.00 10 1013.2
20260507014000 16 0.0 0.0 0.00 0.00 0.00 10 1013.1
20260507013001 16 0.0 0.0 0.00 0.00 0.00 10 1013.1
20260507012000 16 0.0 0.0 0.00 0.00 0.00 10 1013.1
20260507011001 16 0.0 0.0 0.00 0.00 0.00 10 1013.1
20260507010000 16 0.0 0.0 0.00 0.00 0.00 10 1013.1
20260507005001 17 0.0 0.0 0.00 0.00 0.00 10 1013.1
20260507004001 17 0.0 0.0 0.00 0.00 0.00 10 1013.2
20260507003001 17 0.0 0.0 0.00 0.00 0.00 10 1013.3
20260507002001 17 0.0 0.0 0.00 0.00 0.00 10 1013.2
20260507001000 18 0.0 0.0 0.00 0.00 0.00 10 1013.1
20260507000001 18 0.0 0.0 0.00 0.00 0.00 10 1013.1
20260506235000 18 0.0 0.0 0.00 0.00 0.00 10 1013.1
20260506234000 19 0.0 0.0 0.00 0.00 0.00 10 1013.1
20260506233000 18 0.0 0.0 0.00 0.00 0.00 94 1013.1
20260506232001 18 0.0 0.0 0.00 0.00 0.00 88 1013.1
20260506231000 18 0.0 0.0 0.00 0.00 0.00 93 1013.1
20260506230000 19 0.0 0.0 0.00 0.00 0.00 89 1013.1
20260506225000 19 0.0 0.0 0.00 0.00 0.00 99 1013.1
20260506224000 21 0.0 0.0 0.00 0.00 0.00 10 1013.0
20260506223000 21 0.0 0.0 0.00 0.00 0.00 10 1012.9
20260506222001 21 0.0 0.0 0.00 0.00 0.00 10 1012.8
20260506220001 21 0.0 0.0 0.00 0.00 0.00 10 1012.9
20260506215001 21 0.0 0.0 0.00 0.00 0.00 10 1012.9
20260506214001 21 0.0 0.0 0.00 0.00 0.00 10 1012.9
20260506213001 21 0.0 0.0 0.00 0.00 0.00 10 1012.8
20260506212001 22 0.0 0.0 0.00 0.00 0.00 10 1012.8
20260506211001 22 0.0 0.0 0.00 0.00 0.00 10 1012.8
20260506210001 22 0.0 0.0 0.00 0.00 0.00 10 1012.8
20260506205001 22 0.0 0.0 0.00 0.00 0.00 10 1012.7
20260506204001 22 0.0 0.0 0.00 0.00 0.00 10 1012.7
20260506203001 21 0.0 0.0 0.00 0.00 0.00 10 1012.7
20260506202002 21 0.0 0.0 0.00 0.00 0.00 10 1012.6
20260506201001 21 0.0 0.0 0.00 0.00 0.00 10 1012.5
20260506200001 21 0.0 0.0 0.00 0.00 0.00 10 1012.4
20260506195001 21 0.0 0.0 0.00 0.00 0.00 10 1012.2
20260506194001 22 0.0 0.0 0.00 0.00 0.00 10 1012.1
20260506193001 22 0.0 0.0 0.00 0.00 0.00 10 1011.9
20260506192001 22 0.0 0.0 0.00 0.00 0.00 10 1011.8
20260506191001 22 0.0 0.0 0.00 0.00 0.00 10 1011.8
20260506190001 22 0.0 0.0 0.00 0.00 0.00 10 1011.5
20260506185001 22 0.0 0.0 0.00 0.00 0.00 10 1011.4
20260506184000 22 0.0 0.0 0.00 0.00 0.00 10 1011.3
20260506183000 22 0.0 0.0 0.00 0.00 0.00 10 1011.2
20260506182000 22 0.0 0.0 0.00 0.00 0.00 10 1011.2
20260506181001 22 0.0 0.0 0.00 0.00 0.00 10 1011.1
20260506180001 22 0.0 0.0 0.00 0.00 0.00 10 1011.1
20260506175001 22 0.0 0.0 0.00 0.00 0.00 10 1011.1
20260506174001 22 0.0 0.0 0.00 0.00 0.00 10 1011.1
20260506173000 22 0.0 0.0 0.00 0.00 0.00 10 1011.0
20260506172001 22 0.0 0.0 0.00 0.00 0.00 10 1010.9
20260506171001 22 0.0 0.0 0.00 0.00 0.00 10 1010.9
20260506170001 22 0.0 0.0 0.00 0.00 0.00 10 1011.0
20260506165001 23 0.0 0.0 0.00 0.00 0.00 10 1011.0
20260506164001 23 0.0 0.0 0.00 0.00 0.00 10 1011.0
20260506163001 23 0.0 0.0 0.00 0.00 0.00 10 1011.1
20260506162001 23 0.0 0.0 0.00 0.00 0.00 10 1011.2
20260506161001 23 0.0 0.0 0.00 0.00 0.00 10 1011.2
20260506160000 23 0.0 0.0 0.00 0.00 0.00 10 1011.3
20260506155001 24 0.0 0.0 0.00 0.00 0.00 10 1011.4
20260506154000 23 0.0 0.0 0.00 0.00 0.00 10 1011.2
20260506153000 23 0.0 0.0 0.00 0.00 0.00 99 1011.3
20260506152001 24 0.0 0.0 0.00 0.00 0.00 96 1011.2
20260506151001 24 0.0 0.0 0.00 0.00 0.00 96 1011.1
20260506150001 25 0.0 0.0 0.00 0.00 0.00 92 1011.1
20260506145001 25 0.0 0.0 0.00 0.00 0.00 95 1011.1
20260506144001 24 0.0 0.0 0.00 0.00 0.00 95 1011.2
20260506143000 24 0.0 0.0 0.00 0.00 0.00 92 1011.1
20260506142001 25 0.0 0.0 0.00 0.00 0.00 96 1011.1
20260506141001 25 0.0 0.0 0.00 0.00 0.00 95 1011.2
20260506140000 25 0.0 0.0 0.00 0.00 0.00 95 1011.3
20260506135000 25 0.0 0.0 0.00 0.00 0.00 95 1011.3
20260506134000 25 0.0 0.0 0.00 0.00 0.00 95 1011.2
20260506133001 25 0.0 0.0 0.00 0.00 0.00 97 1011.2
20260506132001 24 0.0 0.0 0.00 0.00 0.00 99 1011.2
20260506131001 23 0.0 0.0 0.00 0.00 0.00 10 1011.3
20260506130000 23 0.0 0.0 0.00 0.00 0.00 10 1011.3
20260506125001 23 0.0 0.0 0.00 0.00 0.00 10 1011.3
20260506124001 23 0.0 0.0 0.00 0.00 0.00 10 1011.5
20260506123000 23 0.0 0.0 0.00 0.00 0.00 10 1011.4
20260506122000 23 0.0 0.0 0.00 0.00 0.00 10 1011.6
20260506121001 23 0.0 0.0 0.00 0.00 0.00 10 1011.7
20260506120000 22 0.0 0.0 0.00 0.00 0.00 10 1011.6
20260506115001 22 0.0 0.0 0.00 0.00 0.00 10 1011.6
20260506114000 23 0.0 0.0 0.00 0.00 0.00 10 1011.7
20260506113000 22 0.0 0.0 0.00 0.00 0.00 10 1011.6
20260506112001 22 0.0 0.0 0.00 0.00 0.00 10 1011.5
20260506111001 22 0.0 0.0 0.00 0.00 0.00 10 1011.6
20260506110000 22 0.0 0.0 0.00 0.00 0.00 10 1011.7